CW5346 Weather Reports


Display with metric or nautical units.
time (UTC)temp
F
wind
direction
speed
MPH
gust
MPH
rain 1hr
in
rain 24hr
in
rain mn
in
humidity
%
barometer
mb
20260906102603 58 355 0.0 0.0 0.00 0.00 0.00 96 1013.9
20260906101603 58 355 0.0 0.0 0.00 0.00 0.00 97 1013.8
20260906100603 58 355 0.0 0.0 0.00 0.00 0.00 96 1013.7
20260906095603 58 355 0.0 0.0 0.00 0.00 0.00 96 1013.6
20260906094603 58 355 0.0 0.0 0.00 0.00 0.00 96 1013.6
20260906093603 58 355 0.0 0.0 0.00 0.00 0.00 96 1013.4
20260906092602 59 355 0.0 0.0 0.00 0.00 0.00 96 1013.3
20260906091603 59 355 0.0 0.0 0.00 0.00 0.00 96 1013.2
20260906090603 59 355 0.0 0.0 0.00 0.00 0.00 96 1013.2
20260906085603 59 355 0.0 0.0 0.00 0.00 0.00 96 1013.1
20260906084604 59 355 0.0 0.0 0.00 0.00 0.00 96 1013.1
20260906083605 59 355 0.0 0.0 0.00 0.00 0.00 96 1012.9
20260906082625 59 355 0.0 0.0 0.00 0.00 0.00 96 1012.8
20260906081604 60 355 0.0 0.0 0.00 0.00 0.00 96 1012.8
20260906080605 60 355 0.0 0.0 0.00 0.00 0.00 96 1012.7
20260906075605 60 355 0.0 0.0 0.00 0.00 0.00 96 1012.6
20260906074604 60 355 0.0 0.0 0.00 0.00 0.00 96 1012.6
20260906073604 60 355 0.0 0.0 0.00 0.00 0.00 96 1012.6
20260906072604 60 355 0.0 0.0 0.00 0.00 0.00 96 1012.7
20260906071604 60 355 0.0 0.0 0.00 0.00 0.00 96 1012.6
20260906070605 61 355 0.0 0.0 0.00 0.00 0.00 95 1012.6
20260906065605 61 355 0.0 0.0 0.00 0.00 0.00 95 1012.7
20260906064604 61 355 0.0 0.0 0.00 0.00 0.00 95 1012.8
20260906063604 61 355 0.0 0.0 0.00 0.00 0.00 95 1012.6
20260906062604 61 355 0.0 0.0 0.00 0.00 0.00 95 1012.7
20260906061625 61 355 0.0 0.0 0.00 0.00 0.00 95 1012.8
20260906060604 62 355 0.0 0.0 0.00 0.00 0.00 95 1012.9
20260906055626 62 355 0.0 0.0 0.00 0.00 0.00 95 1013.0
20260906054625 62 355 0.0 0.0 0.00 0.00 0.00 95 1013.0
20260906053604 62 355 0.0 0.0 0.00 0.00 0.00 95 1012.9
20260906052604 62 355 0.0 0.0 0.00 0.00 0.00 95 1013.0
20260906051604 62 355 0.0 0.0 0.00 0.00 0.00 95 1012.9
20260906050605 63 355 0.0 0.0 0.00 0.00 0.00 94 1013.1
20260906045604 63 355 0.0 0.0 0.00 0.00 0.00 94 1013.0
20260906044604 63 355 0.0 0.0 0.00 0.00 0.00 94 1012.9
20260906043626 63 355 0.0 0.0 0.00 0.00 0.00 94 1012.8
20260906042604 63 355 0.0 0.0 0.00 0.00 0.00 94 1012.8
20260906041646 63 355 0.0 0.0 0.00 0.00 0.00 94 1012.9
20260906040604 63 355 0.0 0.0 0.00 0.00 0.00 94 1012.8
20260906035604 63 355 0.0 0.0 0.00 0.00 0.00 94 1012.9
20260906034604 63 355 0.0 0.0 0.00 0.00 0.00 94 1012.8
20260906033604 63 355 0.0 0.0 0.00 0.00 0.00 94 1012.8
20260906032625 64 355 0.0 0.0 0.00 0.00 0.00 94 1012.7
20260906031625 64 355 0.0 0.0 0.00 0.00 0.00 93 1012.5
20260906030625 64 355 0.0 0.0 0.00 0.00 0.00 93 1012.5
20260906025604 64 355 0.0 0.0 0.00 0.00 0.00 93 1012.6
20260906024604 64 355 0.0 0.0 0.00 0.00 0.00 93 1012.5
20260906023604 64 355 0.0 0.0 0.00 0.00 0.00 93 1012.5
20260906022604 64 355 0.0 0.0 0.00 0.00 0.00 93 1012.6
20260906021604 64 355 0.0 0.0 0.00 0.00 0.00 93 1012.6
20260906020604 64 355 0.0 0.0 0.00 0.00 0.00 93 1012.5
20260906015604 65 355 0.0 0.0 0.00 0.00 0.00 93 1012.5
20260906014604 65 355 0.0 0.0 0.00 0.00 0.00 93 1012.5
20260906013604 65 355 0.0 0.0 0.00 0.00 0.00 92 1012.4
20260906012604 65 355 0.0 0.0 0.00 0.00 0.00 92 1012.3
20260906011604 66 355 0.0 0.0 0.00 0.00 0.00 92 1012.2
20260906010604 66 355 0.0 0.0 0.00 0.00 0.00 91 1012.2
20260906005604 66 355 0.0 0.0 0.00 0.00 0.00 91 1011.9
20260906004604 66 355 0.0 0.0 0.00 0.00 0.00 90 1011.8
20260906003604 67 355 0.0 0.0 0.00 0.00 0.00 90 1011.6
20260906002604 67 355 0.0 0.0 0.00 0.00 0.00 90 1011.4
20260906001625 68 355 0.0 0.0 0.00 0.00 0.00 90 1011.5
20260906000625 68 355 0.0 0.0 0.00 0.00 0.00 89 1011.3
20260905235625 69 355 0.0 0.0 0.00 0.00 0.00 89 1011.3
20260905234604 69 355 0.0 0.0 0.00 0.00 0.00 88 1011.0
20260905233603 70 355 0.0 0.0 0.00 0.00 0.00 87 1011.0
20260905232604 70 355 0.0 0.0 0.00 0.00 0.00 86 1011.0
20260905231603 71 355 0.0 0.0 0.00 0.00 0.00 84 1011.0
20260905230604 71 355 0.0 0.0 0.00 0.00 0.00 82 1010.9
20260905225604 72 355 0.0 0.0 0.00 0.00 0.00 81 1010.8
20260905224604 73 355 0.0 0.0 0.00 0.00 0.00 82 1011.0
20260905223604 73 355 0.0 0.0 0.00 0.00 0.00 83 1010.6
20260905222625 73 355 0.0 0.0 0.00 0.00 0.00 79 1010.8
20260905221625 74 355 0.0 0.0 0.00 0.00 0.00 79 1010.6
20260905220625 74 355 0.0 0.0 0.00 0.00 0.00 79 1010.7
20260905215603 74 355 0.0 0.0 0.00 0.00 0.00 79 1010.7
20260905214604 75 355 0.0 0.0 0.00 0.00 0.00 78 1010.5
20260905213604 75 355 0.0 0.0 0.00 0.00 0.00 75 1010.4
20260905212604 75 355 0.0 0.0 0.00 0.00 0.00 77 1010.4
20260905211604 75 355 0.0 0.0 0.00 0.00 0.00 75 1010.4
20260905210605 75 355 0.0 0.0 0.00 0.00 0.00 74 1010.3
20260905205604 76 355 0.0 1.0 0.00 0.00 0.00 72 1010.3
20260905204604 76 354 0.0 3.0 0.00 0.00 0.00 69 1010.3
20260905203604 76 355 0.0 3.0 0.00 0.00 0.00 68 1010.1
20260905202603 75 354 0.0 1.0 0.00 0.00 0.00 74 1010.1
20260905201604 75 355 0.0 0.0 0.00 0.00 0.00 74 1010.2
20260905200604 75 355 0.0 0.0 0.00 0.00 0.00 71 1010.2
20260905195604 75 355 0.0 0.0 0.00 0.00 0.00 74 1010.2
20260905194604 75 355 0.0 0.0 0.00 0.00 0.00 74 1010.2
20260905193604 76 355 0.0 0.0 0.00 0.00 0.00 71 1010.2
20260905192604 76 355 0.0 2.0 0.00 0.00 0.00 68 1010.0
20260905191604 75 349 0.0 0.0 0.00 0.00 0.00 70 1010.1
20260905190604 75 348 0.0 2.0 0.00 0.00 0.00 71 1010.3
20260905185604 76 349 0.0 2.0 0.00 0.00 0.00 69 1010.2
20260905184603 76 348 0.0 5.0 0.00 0.00 0.00 69 1010.2
20260905183604 77 354 1.0 3.0 0.00 0.00 0.00 66 1010.3
20260905182604 76 355 0.0 1.0 0.00 0.00 0.00 67 1010.2
20260905181604 75 355 0.0 0.0 0.00 0.00 0.00 67 1010.4
20260905180604 75 355 0.0 0.0 0.00 0.00 0.00 69 1010.5
20260905175625 75 355 0.0 0.0 0.00 0.00 0.00 68 1010.6
20260905174625 76 355 0.0 1.0 0.00 0.00 0.00 67 1010.7
20260905173603 76 354 0.0 5.0 0.00 0.00 0.00 67 1010.5
20260905172625 76 328 1.0 5.0 0.00 0.00 0.00 67 1010.8
20260905171604 75 332 0.0 3.0 0.00 0.00 0.00 71 1010.9
20260905170604 76 333 0.0 4.0 0.00 0.00 0.00 69 1011.0
20260905165603 75 348 0.0 3.0 0.00 0.00 0.00 68 1010.9
20260905164604 74 344 1.0 5.0 0.00 0.00 0.00 75 1011.1
20260905163604 75 346 1.0 5.0 0.00 0.00 0.00 71 1011.0
20260905162646 75 348 0.0 4.0 0.00 0.00 0.00 74 1011.1
20260905161604 75 349 1.0 4.0 0.00 0.00 0.00 69 1011.0
20260905160604 74 5 0.0 4.0 0.00 0.00 0.00 71 1010.9
20260905155604 74 346 0.0 3.0 0.00 0.00 0.00 70 1010.9
20260905154604 74 345 0.0 3.0 0.00 0.00 0.00 71 1011.0
20260905153603 73 345 1.0 4.0 0.00 0.00 0.00 70 1010.9
20260905152604 73 345 1.0 6.0 0.00 0.00 0.00 71 1011.1
20260905151603 74 5 0.0 3.0 0.00 0.00 0.00 73 1011.0
20260905150604 73 5 0.0 4.0 0.00 0.00 0.00 74 1011.0
20260905145603 74 356 1.0 5.0 0.00 0.00 0.00 75 1011.0
20260905144604 73 327 2.0 6.0 0.00 0.00 0.00 73 1011.0
20260905143624 73 318 1.0 5.0 0.00 0.00 0.00 74 1011.1
20260905142604 73 313 1.0 9.0 0.00 0.00 0.00 74 1011.0
20260905141625 73 341 1.0 9.0 0.00 0.00 0.00 76 1010.9
20260905140604 72 271 1.0 4.0 0.00 0.00 0.00 75 1010.9
20260905135625 73 46 1.0 7.0 0.00 0.00 0.00 75 1010.9
20260905134625 72 327 0.0 7.0 0.00 0.00 0.00 79 1010.8
20260905133625 71 339 2.0 8.0 0.00 0.00 0.00 79 1010.9
20260905132604 70 317 0.0 9.0 0.00 0.00 0.00 80 1010.8
20260905131604 70 333 0.0 2.0 0.00 0.00 0.00 81 1010.9
20260905125625 69 23 0.0 7.0 0.00 0.00 0.00 82 1011.0
20260905124603 68 338 0.0 3.0 0.00 0.00 0.00 84 1011.1
20260905123625 67 339 1.0 4.0 0.00 0.00 0.00 86 1011.4
20260905122603 67 317 0.0 4.0 0.00 0.00 0.00 86 1011.4
20260905121604 67 319 0.0 4.0 0.00 0.00 0.00 88 1011.2
20260905120603 66 302 1.0 6.0 0.00 0.00 0.00 87 1011.3
20260905115603 66 350 0.0 2.0 0.00 0.00 0.00 87 1011.3
20260905114604 65 348 0.0 3.0 0.00 0.00 0.00 88 1011.3
20260905113603 65 338 0.0 2.0 0.00 0.00 0.00 88 1011.2
20260905112604 64 340 0.0 0.0 0.00 0.00 0.00 89 1011.0
20260905111604 64 340 0.0 0.0 0.00 0.00 0.00 89 1011.0
20260905110604 64 340 0.0 0.0 0.00 0.00 0.00 89 1010.6
20260905105624 64 340 0.0 0.0 0.00 0.00 0.00 88 1010.5
20260905104604 64 340 0.0 0.0 0.00 0.00 0.00 87 1010.4
20260905103603 65 340 0.0 0.0 0.00 0.00 0.00 88 1010.3